Location: Newark
(46.0333°N, 5.8167°E)
Time: 05:35:26
(UTC+00:00)

ISS - Visible Passes

Search period start: 22 September 2019 00:00
Search period end: 02 October 2019 00:00
Orbit: 411 x 421 km, 51.6° (Epoch: 22 September)

Date Brightness Start Highest point End Pass type
(mag) Time Alt. Az. Time Alt. Az. Time Alt. Az.
22 Sep -3.4 19:23:03 10° WSW 19:26:20 60° NNW 19:26:55 50° NNE visible
23 Sep -3.8 18:34:30 10° WSW 18:37:50 87° NNW 18:40:31 15° ENE visible
23 Sep -1.2 20:11:49 10° WNW 20:13:24 22° NW 20:13:24 22° NW visible
24 Sep -2.6 19:23:07 10° W 19:26:14 37° NNW 19:26:54 33° NNE visible
25 Sep -2.9 18:34:25 10° W 18:37:38 46° NNW 18:40:19 14° NE visible
25 Sep -1.0 20:11:52 10° WNW 20:13:12 19° NW 20:13:12 19° NW visible
26 Sep -2.3 19:23:11 10° WNW 19:26:11 30° N 19:26:33 29° N visible
27 Sep -2.4 18:34:28 10° WNW 18:37:31 32° N 18:39:51 15° NE visible
27 Sep -0.9 20:11:42 10° WNW 20:12:44 17° NW 20:12:44 17° NW visible
28 Sep -2.3 19:23:06 10° WNW 19:26:00 31° N 19:26:00 31° N visible
29 Sep -2.3 18:34:26 10° WNW 18:37:25 29° N 18:39:15 18° NE visible
29 Sep -0.7 20:11:20 10° WNW 20:12:08 16° NW 20:12:08 16° NW visible
30 Sep -2.3 17:45:42 10° WNW 17:48:42 30° N 17:51:42 10° ENE visible
30 Sep -2.5 19:22:46 10° WNW 19:25:23 36° NNW 19:25:23 36° NNW visible
01 Oct -2.6 18:34:11 10° WNW 18:37:16 34° N 18:38:38 23° ENE visible
01 Oct -0.6 20:10:54 10° WNW 20:11:31 15° WNW 20:11:31 15° WNW visible
